Location: Cooper Lake State Park
(33.3431°N, 95.6813°W)
Time: 19:12:15
(UTC-05:00)

ISS - Visible Passes

Search period start: 19 April 2019 00:00
Search period end: 29 April 2019 00:00
Orbit: 408 x 410 km, 51.6° (Epoch: 20 April)

Date Brightness Start Highest point End Pass type
(mag) Time Alt. Az. Time Alt. Az. Time Alt. Az.
25 Apr -0.8 05:29:54 10° SE 05:30:45 11° SE 05:31:35 10° ESE visible
27 Apr -2.4 05:23:30 18° S 05:25:21 32° SE 05:28:20 10° ENE visible
28 Apr -1.3 04:34:55 16° ESE 04:34:55 16° ESE 04:36:43 10° E visible
28 Apr -2.9 06:07:54 10° WSW 06:10:58 35° NW 06:14:03 10° NNE visible
